Flag for Germany Weather past 2 weeks in Rastatt, Baden-Württemberg, Germany

Now
64 °F

Partly sunny.


Feels Like: 64 °F
Forecast: 63 / 75 °F
Wind: 10 mph from Southwest

Location: Karlsruhe - Baden Wurttemberg

Current Time: Jul 29, 2014 at 9:46:51 PM

Latest Report: Jul 29, 2014 at 9:20 PM


Visibility: N/A

Pressure: 29.80 "Hg

Humidity: 88%

Dew point: 61 °F

Location of RastattLocation

Historic Weather in Rastatt — Graph

°F

Rastatt temperature yesterday

Maximum temperature yesterday: 79 °F (at 12:20 PM)
Minimum temperature yesterday: 61 °F (at 10:20 PM)
Average temperature yesterday: 69 °F

Past Weeks' High & Low Weather Summary

 TemperatureHumidityPressure
High93 °F (Jul 19, 5:20 PM)94% (Jul 15, 6:20 AM)30.18 "Hg (Jul 15, 6:20 AM)
Low57 °F (Jul 15, 6:20 AM)24% (Jul 18, 4:20 PM)29.77 "Hg (Jul 28, 5:20 PM)
Average72 °F66%29.96 "Hg
* Reported Jul 14 8:20 PM — Jul 29 8:20 PM, Rastatt, Weather by CustomWeather, © 2014

Note: Actual official high and low records may vary slightly from our data, if they occured in-between our weather recording intervals... More about our weather records

Advertising

Rastatt weather history for previous 24 hours

 ConditionsComfort  
Time TempWeatherWind HumidityBarometerVisibility
8:20 PM
Jul 29
66 °FPartly sunny.8 mph83%29.77 "HgN/A
7:50 PM66 °FLow clouds.12 mph78%29.77 "HgN/A
7:20 PM66 °FPartly sunny.13 mph78%29.77 "HgN/A
6:50 PM66 °FOvercast.14 mph83%29.77 "HgN/A
6:20 PM66 °FOvercast.10 mph83%29.80 "HgN/A
5:50 PM66 °FOvercast.12 mph83%29.77 "HgN/A
5:20 PM66 °FPartly sunny.9 mph83%29.80 "HgN/A
4:50 PM68 °FOvercast.9 mph78%29.77 "HgN/A
4:20 PM66 °FOvercast.8 mph83%29.77 "HgN/A
3:50 PM66 °FScattered showers. Partly sunny.8 mph83%29.80 "HgN/A
3:20 PM66 °FScattered showers. Partly sunny.7 mph83%29.80 "HgN/A
2:50 PM66 °FScattered showers. Partly sunny.6 mph78%29.80 "HgN/A
2:20 PM64 °FBroken clouds.7 mph83%29.80 "HgN/A
1:50 PM64 °FOvercast.6 mph83%29.80 "HgN/A
1:20 PM63 °FScattered showers. Broken clouds.8 mph88%29.80 "HgN/A
12:50 PM63 °FScattered showers. Partly sunny.8 mph88%29.80 "Hg4 mi
12:20 PM64 °FPartly sunny.6 mph83%29.80 "Hg6 mi
11:50 AM64 °FPartly sunny.6 mph83%29.80 "HgN/A
11:20 AM63 °FPartly sunny.6 mph88%29.80 "HgN/A
10:50 AM63 °FPartly sunny.6 mph88%29.80 "HgN/A
10:20 AM63 °FMore clouds than sun.8 mph88%29.80 "Hg6 mi
9:50 AM63 °FScattered showers. Broken clouds.7 mph88%29.80 "Hg5 mi
9:20 AM63 °FScattered showers. Broken clouds.7 mph88%29.80 "Hg5 mi
8:50 AM61 °FLight rain. Broken clouds.6 mph94%29.80 "Hg4 mi
8:20 AM61 °FBroken clouds.7 mph94%29.80 "Hg4 mi
7:50 AM61 °FBroken clouds.8 mph94%29.80 "Hg6 mi
7:20 AM61 °FBroken clouds.7 mph94%29.80 "Hg4 mi
6:50 AM61 °FLight rain. Passing clouds.8 mph88%29.80 "Hg5 mi
6:20 AM61 °FPartly cloudy.9 mph88%29.80 "HgN/A
5:50 AM61 °FPartly cloudy.9 mph88%29.80 "Hg6 mi
5:20 AM61 °FPassing clouds.9 mph88%29.80 "Hg4 mi
4:50 AM61 °FPartly cloudy.7 mph94%29.80 "HgN/A
4:20 AM63 °FPartly cloudy.8 mph88%29.83 "HgN/A
12:50 AM63 °FLight rain. Partly cloudy.8 mph88%29.83 "HgN/A
12:20 AM63 °FRain. Partly cloudy.6 mph88%29.83 "Hg6 mi
11:50 PM
Jul 28
61 °FThundershowers. Partly cloudy.5 mph94%29.86 "Hg4 mi
11:20 PM61 °FThunderstorms. Passing clouds.3 mph94%29.86 "Hg5 mi
10:50 PM61 °FThunderstorms. Partly cloudy.7 mph94%29.86 "Hg4 mi
10:20 PM61 °FRain. Partly cloudy.8 mph94%29.86 "Hg5 mi
9:50 PM63 °FRain showers. Broken clouds.8 mph88%29.86 "Hg4 mi
9:20 PM63 °FScattered showers. Broken clouds.9 mph88%29.86 "HgN/A
Weather by CustomWeather, © 2014

See weather overviewHow to use our weather pages